Miscellaneous Local Product
Issued by NWS Hastings, NE

Home | Current Version | Previous Version | Text Only | Print | Product List | Glossary On
Versions: 1 2 3 4 5 6 7 8 9 10 11 12 13 14 15 16 17 18 19 20 21 22 23 24 25 26 27 28 29 30 31 32 33 34 35 36 37 38 39 40 41 42 43 44 45 46 47 48 49 50
554
AXUS43 KGID 080902
MISGRI

GID CWA HOURLY WEATHER ROUNDUP
NATIONAL WEATHER SERVICE HASTINGS NE
300 AM CST THU DEC 08 2016

NOTE: "FAIR" INDICATES FEW OR NO CLOUDS BELOW 12,000 FEET WITH NO
SIGNIFICANT WEATHER AND/OR OBSTRUCTIONS TO VISIBILITY.

...SOUTH CENTRAL NEBRASKA...

CITY           SKY/WX    TMP DP  RH WIND       PRES   REMARKS
GRAND ISLAND   CLEAR      9   1  70 NW13      30.54R WCI  -7
HASTINGS       CLEAR     11   0  61 NW15      30.54R WCI  -5
KEARNEY        CLEAR     10  -2  56 NW10      30.54R WCI  -3
ORD            CLEAR      8  -3  61 NW17G24   30.52R WCI -10
YORK           CLEAR     10   1  67 NW16G22   30.52R WCI  -7
AURORA         CLEAR     11   1  63 NW21      30.52R WCI  -8
LEXINGTON      CLEAR      8   0  72 NW14      30.55R WCI  -9
HOLDREGE       CLEAR      8   0  70 NW12      30.54R WCI  -7
HEBRON         CLEAR     13   4  68 NW9       30.57R WCI   1

...NEBRASKA PANHANDLE...

CITY           SKY/WX    TMP DP  RH WIND       PRES   REMARKS
CHADRON        CLEAR      1  -7  68 VRB3      30.53R
ALLIANCE       CLEAR    -10 -15  78 W12       30.47R WCI -30
SCOTTSBLUFF    CLOUDY    -6 -12  75 W3        30.51R
SIDNEY         CLEAR     -5 -11  75 W12       30.47R WCI -23

...WESTERN AND NORTH CENTRAL NEBRASKA...

CITY           SKY/WX    TMP DP  RH WIND       PRES   REMARKS
VALENTINE      CLEAR      5  -5  63 NW13      30.53R WCI -12
AINSWORTH      CLEAR      6  -1  72 NW15G22   30.51R WCI -12
ONEILL         CLEAR      8   0  69 NW18G29   30.50R WCI -11
BROKEN BOW     CLEAR      8  -1  66 NW22G30   30.51R WCI -12
IMPERIAL       CLEAR      1  -7  68 NW15      30.53R WCI -18
NORTH PLATTE   CLEAR      2  -3  80 W8        30.56R WCI -12
MCCOOK         CLEAR      0  -6  76 W8        30.58R WCI -14

...EASTERN NEBRASKA...

CITY           SKY/WX    TMP DP  RH WIND       PRES   REMARKS
NORFOLK        CLEAR      8  -1  66 NW22      30.48R WCI -12
SO SIOUX CITY  PTCLDY    13   3  64 NW24G33   30.46R WCI  -7
TEKAMAH        CLEAR     12   3  67 NW20G29   30.50R WCI  -6
COLUMBUS       CLEAR     10   0  61 W15G24    30.51R WCI  -6
ALBION         CLEAR      9   0  65 NW16G23   30.50R WCI  -8
OMAHA EPPLEY   PTCLDY    14   4  64 NW17G26   30.50R WCI  -3
OFFUTT AFB     CLEAR     14   4  66 NW16G24   30.50R WCI  -2
MILLARD        CLEAR     15   4  62 NW17G24   30.50R WCI  -1
LINCOLN        CLEAR     14   3  61 NW13      30.54R WCI   0
NEBRASKA CITY  CLEAR     14   2  57 NW15G21   30.50R WCI  -1
BEATRICE       CLEAR     14   4  65 NW17      30.54R WCI  -2
FALLS CITY     CLEAR     16   5  62 NW17G26   30.51R WCI   0

...NORTHERN KANSAS...

CITY           SKY/WX    TMP DP  RH WIND       PRES   REMARKS
GOODLAND       CLOUDY    -2  -8  76 W10       30.52R WCI -19
HILL CITY      CLEAR      6  -1  73 NW7       30.61R WCI  -6
NORTON         SUNNY      1  -6  71 W10       30.57R WCI -14
PHILLIPSBURG   CLEAR      7   1  78 W10       30.61R WCI  -8
SMITH CENTER   CLEAR      3   1  92 W8        30.60R WCI -10
BELOIT         CLEAR     10   3  72 NW8       30.60R WCI  -1
HAYS             N/A    N/A N/A N/A MISG        N/A
RUSSELL        CLEAR     11   5  77 NW8       30.60R WCI  -1
CONCORDIA      CLEAR     14   4  64 NW18G24   30.57R WCI  -3
SALINA         CLEAR     14   7  73 W9        30.62R WCI   2
TOPEKA         CLEAR     17   8  67 W10       30.56R WCI   5



USA.gov is the U.S. government's official web portal to all federal, state and local government web resources and services.